DW4128 Weather Reports


time (UTC)temp
C
wind
direction
speed
KPH
gust
KPH
rain 1hr
cm
rain 24hr
cm
rain mn
cm
humidity
%
barometer
mb
20260508013031 11 134 0.0 0.0 0.00 0.00 0.00 89 1010.6
20260508011531 11 134 0.0 0.0 0.00 0.00 0.00 88 1010.8
20260508010029 11 134 0.0 0.0 0.00 0.00 0.00 88 1010.7
20260508004532 11 134 0.0 0.0 0.00 0.00 0.00 87 1010.7
20260508003034 11 134 0.0 0.0 0.00 0.00 0.00 87 1010.8
20260508001526 11 134 0.0 0.0 0.00 0.00 0.00 85 1010.7
20260508000026 11 134 0.0 0.0 0.00 0.00 0.00 85 1010.8
20260507234523 11 134 0.0 0.0 0.00 0.00 0.00 84 1010.9
20260507233039 12 134 0.0 0.0 0.00 0.00 0.00 84 1010.9
20260507231529 11 134 0.0 0.0 0.00 0.00 0.00 85 1010.9
20260507230022 11 137 1.6 0.0 0.00 0.00 0.00 85 1010.9
20260507224522 11 244 0.0 0.0 0.00 0.00 0.00 85 1010.8
20260507223019 12 243 0.0 0.0 0.00 0.00 0.00 84 1010.8
20260507221521 12 243 0.0 0.0 0.00 0.00 0.00 82 1010.7
20260507220016 12 243 0.0 0.0 0.00 0.00 0.00 81 1010.7
20260507214517 12 244 0.0 0.0 0.00 0.00 0.00 81 1010.5
20260507213020 13 244 0.0 0.0 0.00 0.00 0.00 79 1010.4
20260507211515 13 244 0.0 0.0 0.00 0.00 0.00 77 1010.5
20260507210014 13 244 0.0 0.0 0.00 0.00 0.00 76 1010.5
20260507204519 15 244 0.0 0.0 0.00 0.00 0.00 72 1010.3
20260507203014 15 244 3.2 0.0 0.00 0.00 0.00 69 1010.1
20260507201516 15 210 1.6 0.0 0.00 0.00 0.00 70 1009.9
20260507200014 15 169 4.8 0.0 0.00 0.00 0.00 69 1009.8
20260507194512 15 154 3.2 0.0 0.00 0.00 0.00 70 1009.4
20260507193015 16 176 3.2 0.0 0.00 0.00 0.00 66 1009.4
20260507191513 17 164 0.0 0.0 0.00 0.00 0.00 63 1009.3
20260507190011 17 188 4.8 0.0 0.00 0.00 0.00 59 1009.0
20260507184510 18 182 6.4 0.0 0.00 0.00 0.00 57 1009.0
20260507183012 18 141 4.8 0.0 0.00 0.00 0.00 58 1008.8
20260507181509 18 164 1.6 0.0 0.00 0.00 0.00 58 1008.7
20260507180009 19 69 1.6 0.0 0.00 0.00 0.00 55 1008.5
20260507174508 19 69 0.0 0.0 0.00 0.00 0.00 51 1008.4
20260507173008 20 69 0.0 0.0 0.00 0.00 0.00 50 1008.3
20260507171510 20 69 0.0 0.0 0.00 0.00 0.00 49 1008.2
20260507170007 20 65 0.0 0.0 0.00 0.00 0.00 50 1008.2
20260507164506 21 133 1.6 0.0 0.00 0.00 0.00 46 1008.2
20260507163009 21 31 0.0 0.0 0.00 0.00 0.00 45 1008.2
20260507161505 21 133 0.0 0.0 0.00 0.00 0.00 41 1008.2
20260507160005 22 114 0.0 0.0 0.00 0.00 0.00 47 1008.2
20260507154504 23 68 0.0 0.0 0.00 0.00 0.00 41 1008.0
20260507153004 23 68 0.0 0.0 0.00 0.00 0.00 43 1008.0
20260507151505 23 116 0.0 0.0 0.00 0.00 0.00 42 1008.1
20260507150003 23 340 1.6 0.0 0.00 0.00 0.00 42 1008.2
20260507144501 23 333 0.0 0.0 0.00 0.00 0.00 42 1008.3
20260507143001 23 78 0.0 0.0 0.00 0.00 0.00 43 1008.4
20260507141501 23 80 0.0 0.0 0.00 0.00 0.00 43 1008.4
20260507140100 23 82 0.0 0.0 0.00 0.00 0.00 42 1008.5
20260507134602 22 133 1.6 0.0 0.00 0.00 0.00 44 1008.7
20260507133058 22 6 1.6 0.0 0.00 0.00 0.00 42 1008.9
20260507131553 21 359 0.0 0.0 0.00 0.00 0.00 47 1009.0
20260507130053 21 95 1.6 0.0 0.00 0.00 0.00 45 1009.1
20260507124553 22 136 3.2 0.0 0.00 0.00 0.00 43 1009.2
20260507123051 22 157 3.2 0.0 0.00 0.00 0.00 42 1009.3
20260507121550 21 359 0.0 0.0 0.00 0.00 0.00 48 1009.5
20260507120059 21 232 3.2 0.0 0.00 0.00 0.00 45 1009.7
20260507114549 22 86 1.6 0.0 0.00 0.00 0.00 45 1009.7
20260507113051 21 49 1.6 0.0 0.00 0.00 0.00 49 1009.9
20260507111547 21 333 0.0 0.0 0.00 0.00 0.00 47 1010.1
20260507110044 21 359 1.6 0.0 0.00 0.00 0.00 53 1010.2
20260507104541 20 95 1.6 0.0 0.00 0.00 0.00 54 1010.3
20260507103040 20 147 1.6 0.0 0.00 0.00 0.00 53 1010.4
20260507101540 20 152 1.6 0.0 0.00 0.00 0.00 57 1010.7
20260507100039 20 353 1.6 0.0 0.00 0.00 0.00 59 1010.7
20260507094532 19 117 0.0 0.0 0.00 0.00 0.00 58 1010.7
20260507093030 18 76 3.2 0.0 0.00 0.00 0.00 64 1010.8
20260507091526 17 330 1.6 0.0 0.00 0.00 0.00 69 1010.7
20260507090020 17 329 1.6 0.0 0.00 0.00 0.00 69 1010.7
20260507084516 16 350 1.6 0.0 0.00 0.00 0.00 72 1010.5
20260507083014 16 72 0.0 0.0 0.00 0.00 0.00 73 1010.6
20260507081509 15 72 0.0 0.0 0.00 0.00 0.00 79 1010.6
20260507080004 14 73 0.0 0.0 0.00 0.00 0.00 81 1010.5
20260507074606 14 79 0.0 0.0 0.00 0.00 0.00 86 1010.5
20260507073133 14 80 1.6 0.0 0.00 0.00 0.00 93 1010.5
20260507071554 13 333 1.6 0.0 0.00 0.00 0.00 96 1010.3
20260507070052 13 248 0.0 0.0 0.00 0.00 0.00 97 1010.3
20260507064608 12 246 1.6 0.0 0.00 0.00 0.00 97 1010.3
20260507063057 12 157 0.0 0.0 0.00 0.00 0.00 97 1010.3
20260507061549 12 157 0.0 0.0 0.00 0.00 0.00 97 1010.0
20260507060046 12 157 0.0 0.0 0.00 0.00 0.00 97 1009.8
20260507054545 11 157 0.0 0.0 0.00 0.00 0.00 97 1009.8
20260507053045 11 155 0.0 0.0 0.00 0.00 0.00 97 1009.6
20260507051545 11 157 0.0 0.0 0.00 0.00 0.00 97 1009.4
20260507050043 11 157 0.0 0.0 0.00 0.00 0.00 97 1009.2
20260507044543 11 157 0.0 0.0 0.00 0.00 0.00 97 1009.1
20260507043047 11 157 0.0 0.0 0.00 0.00 0.00 97 1009.0
20260507041546 10 157 0.0 0.0 0.00 0.00 0.00 96 1008.8
20260507040040 10 157 0.0 0.0 0.00 0.00 0.00 96 1008.6
20260507034544 10 155 0.0 0.0 0.00 0.00 0.00 96 1008.5
20260507033057 10 157 0.0 0.0 0.00 0.00 0.00 96 1008.5
20260507031538 11 157 0.0 0.0 0.00 0.00 0.00 96 1008.4
20260507030037 11 157 0.0 0.0 0.00 0.00 0.00 96 1008.3
20260507024543 11 157 0.0 0.0 0.00 0.00 0.00 96 1008.3
20260507023036 11 157 0.0 0.0 0.00 0.00 0.00 97 1008.4
20260507021534 11 157 0.0 0.0 0.00 0.00 0.00 97 1008.3
20260507020034 11 157 0.0 0.0 0.00 0.00 0.00 96 1008.3
20260507014533 11 157 0.0 0.0 0.00 0.00 0.00 96 1008.1